Change the Weather History Date:

Thursday, November 1, 2012

  Actual Average Record
Temperature  
Mean Temperature 64 °F -  
Max Temperature 78 °F 77 °F 84 °F (2010)
Min Temperature 50 °F 46 °F 39 °F (2007)
Degree Days  
Heating Degree Days 1    
Growing Degree Days 14 (Base 50)    
Moisture  
Dew Point 49 °F    
Average Humidity 62    
Maximum Humidity 94    
Minimum Humidity 28    
Precipitation  
Precipitation 0.00 in - - ()
Sea Level Pressure  
Sea Level Pressure 30.08 in    
Wind  
Wind Speed 3 mph ()    
Max Wind Speed 15 mph    
Max Gust Speed -    
Visibility 8.8 miles    
Events      
Averages and records for this station are not official NWS values.
T = Trace of Precipitation, MM = Missing Value Source: Averaged Metar Reports

Daily Weather History Graph

Daily Weather History Graph

Search for Another Location

Airport or City:

Trip Planner

Search our weather history database for the weather conditions in past years. The results will help you decide how hot, cold, wet, or windy it might be!

Date:

Astronomy

Nov. 01, 2012 Rise Set
Actual Time 6:55 AM CST 6:17 PM CST
Civil Twilight 6:32 AM CST 6:40 PM CST
Nautical Twilight 6:06 AM CST 7:06 PM CST
Astronomical Twilight 5:40 AM CST 7:32 PM CST
Moon 8:32 PM CST (11/1) 9:14 AM CST (11/1)
Length of Visible Light 12h 07m
Length of Day
11h 22m
Waning Gibbous, 92% of the Moon is Illuminated
Nov 1
Waning Gibbous
Nov 6
Last Quarter
Nov 13
New
Nov 20
First Quarter
Nov 28
Full

Hourly Weather History & Observations

Time (CST) Temp. Dew Point Humidity Pressure Visibility Wind Dir Wind Speed Gust Speed Precip Events Conditions
12:51 AM 55.4 °F 48.2 °F 77% 30.18 in 10.0 mi Calm Calm - N/A   Clear
1:52 AM 55.4 °F 51.8 °F 88% 30.18 in 10.0 mi WSW 3.5 mph - N/A   Clear
2:56 AM 51.8 °F 50.0 °F 94% 29.91 in 10.0 mi Calm Calm - N/A   Clear
3:53 AM 51.8 °F 48.2 °F 88% 30.17 in 10.0 mi Calm Calm - N/A   Clear
5:05 AM 50.0 °F 48.2 °F 94% 30.17 in 10.0 mi Calm Calm - N/A   Clear
6:02 AM 50.0 °F 48.2 °F 94% 29.93 in 10.0 mi Calm Calm - N/A   Clear
6:51 AM 50.0 °F 48.2 °F 94% 30.19 in 5.0 mi Calm Calm - N/A   Clear
7:51 AM 53.6 °F 50.0 °F 88% 30.21 in 6.0 mi Calm Calm - N/A   Scattered Clouds
9:49 AM 68.0 °F 53.6 °F 60% 30.24 in 6.0 mi Calm Calm - N/A   Partly Cloudy
10:47 AM 69.8 °F 53.6 °F 56% 30.23 in 6.0 mi Calm Calm - N/A   Scattered Clouds
11:54 AM 73.4 °F 51.8 °F 47% 29.96 in 8.0 mi SSE 5.8 mph - N/A   Mostly Cloudy
12:52 PM 75.2 °F 50.0 °F 41% 30.16 in 8.0 mi ENE 6.9 mph - N/A   Mostly Cloudy
1:48 PM 75.2 °F 44.6 °F 34% 30.12 in 8.0 mi Calm Calm - N/A   Mostly Cloudy
2:51 PM 78.8 °F 42.8 °F 28% 29.82 in 8.0 mi East 4.6 mph - N/A   Mostly Cloudy
3:51 PM 77.0 °F 41.0 °F 28% 30.07 in 8.0 mi SW 4.6 mph - N/A   Mostly Cloudy
4:52 PM 77.0 °F 42.8 °F 29% 30.06 in 10.0 mi South 5.8 mph - N/A   Mostly Cloudy
5:52 PM 71.6 °F 50.0 °F 46% 29.85 in 10.0 mi South 13.8 mph - N/A   Mostly Cloudy
6:52 PM 69.8 °F 48.2 °F 46% 30.09 in 10.0 mi SSW 4.6 mph - N/A   Mostly Cloudy
7:48 PM 68.0 °F 48.2 °F 49% 30.12 in 10.0 mi NNE 11.5 mph - N/A   Mostly Cloudy
8:53 PM 66.2 °F 50.0 °F 56% 29.90 in 10.0 mi WNW 15.0 mph - N/A   Mostly Cloudy
9:45 PM 66.2 °F 48.2 °F 52% 30.15 in 10.0 mi West 11.5 mph - N/A   Mostly Cloudy
10:46 PM 64.4 °F 50.0 °F 59% 30.17 in 10.0 mi NW 4.6 mph - N/A   Mostly Cloudy
11:42 PM 60.8 °F 50.0 °F 68% 29.88 in 10.0 mi South 3.5 mph - N/A   Mostly Cloudy